TimeCST,TemperatureF,Dew PointF,Humidity,Sea Level PressureIn,VisibilityMPH,Wind Direction,Wind SpeedMPH,Gust SpeedMPH,PrecipitationIn,Events,Conditions,WindDirDegrees,DateUTC
12:15 AM,36.5,27.0,68,30.27,10.0,ESE,9.2,-,N/A,,Clear,110,2013-03-08 06:15:00
12:35 AM,36.1,27.0,69,30.28,10.0,ESE,8.1,-,N/A,,Clear,120,2013-03-08 06:35:00
12:55 AM,35.6,26.8,70,30.28,10.0,ESE,8.1,-,N/A,,Clear,120,2013-03-08 06:55:00
1:15 AM,35.6,27.0,71,30.29,10.0,ESE,8.1,-,N/A,,Clear,110,2013-03-08 07:15:00
1:35 AM,35.4,27.0,71,30.29,10.0,ESE,8.1,-,N/A,,Clear,120,2013-03-08 07:35:00
1:55 AM,35.4,27.0,71,30.29,10.0,ESE,10.4,-,N/A,,Clear,110,2013-03-08 07:55:00
2:15 AM,35.4,27.0,71,30.29,10.0,ESE,8.1,-,N/A,,Clear,120,2013-03-08 08:15:00
2:35 AM,34.7,27.0,73,30.28,10.0,ESE,9.2,-,N/A,,Clear,110,2013-03-08 08:35:00
2:55 AM,34.3,27.0,74,30.28,10.0,ESE,9.2,-,N/A,,Clear,110,2013-03-08 08:55:00
3:15 AM,34.3,27.0,74,30.27,10.0,ESE,10.4,-,N/A,,Clear,120,2013-03-08 09:15:00
3:35 AM,34.2,27.1,75,30.27,10.0,ESE,10.4,-,N/A,,Clear,120,2013-03-08 09:35:00
3:55 AM,34.2,27.3,76,30.28,10.0,ESE,9.2,-,N/A,,Clear,120,2013-03-08 09:55:00
4:15 AM,34.0,27.3,77,30.28,10.0,ESE,8.1,-,N/A,,Clear,120,2013-03-08 10:15:00
4:35 AM,33.8,27.5,78,30.28,10.0,SE,8.1,-,N/A,,Clear,130,2013-03-08 10:35:00
4:55 AM,33.6,27.7,79,30.28,10.0,SE,9.2,-,N/A,,Clear,130,2013-03-08 10:55:00
5:15 AM,33.8,28.0,79,30.28,10.0,SE,9.2,-,N/A,,Clear,130,2013-03-08 11:15:00
5:35 AM,33.8,28.0,79,30.27,10.0,ESE,9.2,-,N/A,,Clear,120,2013-03-08 11:35:00
5:55 AM,33.8,28.0,79,30.28,10.0,SE,9.2,-,N/A,,Clear,130,2013-03-08 11:55:00
6:15 AM,33.3,27.9,81,30.28,10.0,SE,9.2,-,N/A,,Clear,130,2013-03-08 12:15:00
6:35 AM,33.3,27.9,81,30.28,10.0,SE,9.2,-,N/A,,Clear,140,2013-03-08 12:35:00
6:55 AM,33.8,28.2,80,30.30,10.0,SE,10.4,-,N/A,,Clear,140,2013-03-08 12:55:00
7:15 AM,34.2,28.4,79,30.30,10.0,SE,8.1,-,N/A,,Clear,130,2013-03-08 13:15:00
7:35 AM,35.1,28.6,77,30.30,10.0,SE,11.5,-,N/A,,Clear,130,2013-03-08 13:35:00
7:55 AM,36.1,28.9,75,30.30,10.0,SE,10.4,-,N/A,,Clear,130,2013-03-08 13:55:00
8:15 AM,37.4,29.3,73,30.30,10.0,SE,11.5,-,N/A,,Clear,130,2013-03-08 14:15:00
8:35 AM,38.3,29.3,70,30.30,10.0,SE,8.1,-,N/A,,Clear,130,2013-03-08 14:35:00
8:55 AM,39.2,29.7,69,30.30,10.0,SE,10.4,-,N/A,,Clear,130,2013-03-08 14:55:00
9:15 AM,39.6,29.7,68,30.30,10.0,SE,9.2,17.3,N/A,,Clear,130,2013-03-08 15:15:00
9:35 AM,40.5,29.8,66,30.30,10.0,SE,9.2,-,N/A,,Clear,130,2013-03-08 15:35:00
9:55 AM,41.2,29.8,64,30.28,10.0,ESE,10.4,-,N/A,,Clear,110,2013-03-08 15:55:00
10:15 AM,41.9,30.0,63,30.29,10.0,ESE,10.4,-,N/A,,Clear,120,2013-03-08 16:15:00
10:35 AM,42.6,30.0,61,30.28,10.0,ESE,11.5,-,N/A,,Clear,120,2013-03-08 16:35:00
10:55 AM,43.3,30.2,60,30.27,10.0,ESE,10.4,-,N/A,,Clear,110,2013-03-08 16:55:00
11:15 AM,44.1,30.0,58,30.28,10.0,SE,10.4,-,N/A,,Clear,130,2013-03-08 17:15:00
11:35 AM,44.6,30.2,57,30.27,10.0,SE,11.5,-,N/A,,Clear,130,2013-03-08 17:35:00
11:55 AM,45.9,30.2,54,30.26,10.0,SSE,10.4,-,N/A,,Clear,150,2013-03-08 17:55:00
12:15 PM,46.8,30.6,53,30.25,10.0,SE,9.2,-,N/A,,Clear,130,2013-03-08 18:15:00
12:35 PM,47.8,30.6,51,30.25,10.0,SE,8.1,-,N/A,,Clear,130,2013-03-08 18:35:00
12:55 PM,49.3,30.6,49,30.24,10.0,SE,11.5,-,N/A,,Clear,140,2013-03-08 18:55:00
1:15 PM,49.3,30.7,49,30.23,10.0,SE,10.4,-,N/A,,Clear,130,2013-03-08 19:15:00
1:35 PM,49.6,30.9,49,30.22,10.0,SE,9.2,-,N/A,,Clear,140,2013-03-08 19:35:00
1:55 PM,50.5,31.1,47,30.21,10.0,SE,8.1,-,N/A,,Clear,140,2013-03-08 19:55:00
2:15 PM,50.7,31.1,47,30.21,10.0,SE,10.4,-,N/A,,Clear,140,2013-03-08 20:15:00
2:35 PM,51.1,31.1,46,30.21,10.0,SE,8.1,-,N/A,,Clear,140,2013-03-08 20:35:00
2:55 PM,50.7,31.1,47,30.20,10.0,ESE,5.8,-,N/A,,Clear,110,2013-03-08 20:55:00
3:15 PM,50.0,31.3,49,30.20,10.0,ESE,8.1,-,N/A,,Clear,120,2013-03-08 21:15:00
3:35 PM,49.8,31.5,49,30.19,10.0,ESE,5.8,-,N/A,,Clear,120,2013-03-08 21:35:00
3:55 PM,49.6,31.5,50,30.18,10.0,ESE,8.1,-,N/A,,Clear,110,2013-03-08 21:55:00
4:15 PM,49.5,31.3,50,30.18,10.0,ESE,9.2,-,N/A,,Mostly Cloudy,110,2013-03-08 22:15:00
4:35 PM,48.7,31.1,51,30.18,10.0,East,8.1,-,N/A,,Overcast,100,2013-03-08 22:35:00
4:55 PM,48.0,31.5,53,30.18,10.0,East,9.2,-,N/A,,Scattered Clouds,80,2013-03-08 22:55:00
5:15 PM,46.6,31.6,56,30.16,10.0,East,10.4,-,N/A,,Scattered Clouds,80,2013-03-08 23:15:00
5:35 PM,46.6,31.3,55,30.16,10.0,East,10.4,-,N/A,,Scattered Clouds,90,2013-03-08 23:35:00
5:55 PM,46.6,31.1,55,30.16,10.0,East,10.4,-,N/A,,Clear,100,2013-03-08 23:55:00
6:15 PM,46.8,30.7,54,30.16,10.0,East,9.2,-,N/A,,Scattered Clouds,100,2013-03-09 00:15:00
6:35 PM,46.2,30.4,54,30.15,10.0,East,11.5,-,N/A,,Clear,90,2013-03-09 00:35:00
6:55 PM,45.9,30.0,54,30.15,10.0,East,10.4,-,N/A,,Clear,100,2013-03-09 00:55:00
7:15 PM,46.2,29.3,52,30.14,10.0,East,11.5,-,N/A,,Clear,100,2013-03-09 01:15:00
7:35 PM,45.7,29.1,52,30.15,10.0,East,9.2,-,N/A,,Mostly Cloudy,100,2013-03-09 01:35:00
7:55 PM,45.3,28.6,52,30.15,10.0,ESE,10.4,-,N/A,,Scattered Clouds,110,2013-03-09 01:55:00
8:15 PM,44.8,28.4,53,30.15,10.0,ESE,10.4,-,N/A,,Mostly Cloudy,110,2013-03-09 02:15:00
8:35 PM,44.8,28.4,53,30.15,10.0,ESE,10.4,-,N/A,,Overcast,110,2013-03-09 02:35:00
8:55 PM,44.2,28.8,55,30.14,10.0,ESE,10.4,-,N/A,,Overcast,110,2013-03-09 02:55:00
9:15 PM,43.3,29.7,59,30.14,10.0,ESE,9.2,-,N/A,Rain,Light Rain,110,2013-03-09 03:15:00
9:35 PM,43.2,30.0,60,30.13,10.0,ESE,11.5,-,N/A,Rain,Light Rain,120,2013-03-09 03:35:00
9:55 PM,43.9,29.5,57,30.13,10.0,ESE,12.7,-,N/A,,Overcast,120,2013-03-09 03:55:00
10:15 PM,44.6,29.1,55,30.12,10.0,ESE,12.7,-,N/A,,Overcast,120,2013-03-09 04:15:00
10:35 PM,44.1,29.5,57,30.12,10.0,SE,10.4,-,N/A,,Drizzle,130,2013-03-09 04:35:00
10:55 PM,43.0,30.6,62,30.10,10.0,SE,10.4,-,N/A,Rain,Light Rain,130,2013-03-09 04:55:00
11:15 PM,42.4,31.3,65,30.10,10.0,SE,10.4,-,N/A,,Drizzle,140,2013-03-09 05:15:00
11:35 PM,42.8,31.6,65,30.09,10.0,SE,11.5,-,N/A,,Light Drizzle,130,2013-03-09 05:35:00
11:55 PM,42.8,31.6,65,30.08,10.0,ESE,11.5,-,N/A,,Overcast,120,2013-03-09 05:55:00